sat.trackr.live / text

‹ back to catalog

STARLINK-11111 [DTC]

NORAD 59764 · 2024-091M

PAYLOAD ACTIVE UNKNOWN

§ Identity

Operator
Country
US
Launch date
2024-05-14
Launch site
AFWTR
Launch vehicle
Mass (kg)
RCS (m²)

Purposes: comms

External: N2YO · Heavens-Above · Gunter

§ Orbital elements

Epoch: 2026-08-17T14:59:15.647424Z

Period
88.03 min
Inclination
53.1276°
Eccentricity
0.0017751
Mean motion
16.35890984 rev/d
Perigee alt
165.1 km
Apogee alt
188.4 km
Semi-major
6,554.9 km
B*
1.8436e-3
RAAN
119.9463°
Arg perigee
229.2160°
Mean anomaly
130.7347°
Rev number
13,096

§ Raw data

STARLINK-11111 [DTC]1 59764U 24091M   26229.62448666  .16820535  12047-4  18436-2 0  99922 59764  53.1276 119.9463 0017751 229.2160 130.7347 16.35890984130960

JSON: /api/v1/satellites/59764 · /tle

For live sub-satellite position, see the globe view (requires WebGL).

§ Visibility from observer

Set your observer location to see the next 7 days of passes ≥ 10°. The values pass through the URL so the page stays shareable.

No JS? Fill the form by hand. The geolocation button needs JavaScript.